Карточка аэропорта USTR

Внимание!
Информация на этой странице в стадии наполнения.
Если вы не увидели какой-то информации, или заметили неточность - пожалуйста сообщите нам!
Спасибо!
Команда XR-STAFF
Название аэропортаРощино
Название аэропорта (англ.)Roshschino
Превышение378 ft. (115.2 m.)
Координаты57°10.098', 65°19.002'
Высота перехода700m
Эшелон переходаFL040
Коды ответчика5101-5137
Зона ОрВДТюмень РПИ (USTV)
Данные METARUSTR 171630Z 21003MPS 9999 FEW060CB 11/11 Q1001 R21/290060 R30/////99 NOSIG
Проноз погоды (TAF)USTR 171358Z 1715/1815 24003G12MPS 5000 -SHRA BR SCT016CB TEMPO 1715/1718 3100 -SHRA BR SCT007 SCT011CB TEMPO 1718/1806 0500 FG VV002 FM180600 19003G09MPS 9999 BKN020
NOTAMshow/hide NOTAM
AWOS   TABLE

Информация о ВПП

ВПП Длина ВПП (м.) Покрытие Курс ВПП Частота ILS
122704Асфальтобетон121 
302704Асфальтобетон301 
033003Асфальтобетон34108.3
213003Асфальтобетон214110.7

Диспетчерские позиции

Позывной Наименование органа УВД Частота
USTR_GNDТюмень-Руление119.000
USTR_TWRТюмень-Старт118.200
USTR_R_APPТюмень-Круг126.100



Спутниковое изображение